Weather History for Cocoa Beach, FL

Change the Weather History Date:

Thursday, July 18, 2013

  Actual Average (KCOF) Record (KCOF)
Temperature  
Mean Temperature 78 °F -  
Max Temperature 84 °F 85 °F 95 °F (2000)
Min Temperature 72 °F 74 °F 71 °F (1997)
Cooling Degree Days 13    
Growing Degree Days 28 (Base 50)    
Moisture  
Dew Point 74 °F    
Average Humidity 91    
Maximum Humidity 100    
Minimum Humidity 72    
Precipitation  
Precipitation 0.25 in - - ()
Sea Level Pressure  
Sea Level Pressure 30.12 in    
Wind  
Wind Speed 5 mph (SE)    
Max Wind Speed 13 mph    
Max Gust Speed -    
Visibility 9 miles    
Events Rain    
Averages and records for this station are not official NWS values.
T = Trace of Precipitation, MM = Missing Value Source: NWS Daily Summary

Daily Weather History Graph

Daily Weather History Graph

Search for Another Location

Airport:

Trip Planner

Search our weather history database for the weather conditions in past years. The results will help you decide how hot, cold, wet, or windy it might be!

Date:

Astronomy

Jul. 18, 2013 Rise Set
Actual Time 6:36 AM EDT 8:20 PM EDT
Civil Twilight 6:10 AM EDT 8:46 PM EDT
Nautical Twilight 5:38 AM EDT 9:17 PM EDT
Astronomical Twilight 5:05 AM EDT 9:51 PM EDT
Moon 4:17 PM EDT (7/18) 2:20 AM EDT (7/18)
Length of Visible Light 14h 36m
Length of Day
13h 43m
Waxing Gibbous, 77% of the Moon is Illuminated
Jul 18
Waxing Gibbous
Jul 22
Full
Jul 29
Last Quarter
Aug 6
New
Aug 14
First Quarter

Hourly Weather History & Observations

Time (EDT) Temp. Heat Index Dew Point Humidity Pressure Visibility Wind Dir Wind Speed Gust Speed Precip Events Conditions
12:58 AM 73.2 °F - 73.0 °F 99% 30.13 in 10.0 mi East 2.3 mph - N/A   Clear
1:58 AM 72.7 °F - 72.7 °F 100% 30.12 in 10.0 mi NE 3.5 mph - N/A   Clear
2:58 AM 72.9 °F - 72.9 °F 100% 30.10 in 10.0 mi ENE 3.5 mph - N/A   Clear
3:58 AM 73.2 °F - 73.2 °F 100% 30.10 in 10.0 mi East 2.3 mph - N/A   Clear
4:58 AM 73.9 °F - 73.9 °F 100% 30.10 in 10.0 mi NNE 3.5 mph - N/A   Clear
5:58 AM 73.0 °F - 73.0 °F 100% 30.11 in 10.0 mi ENE 3.5 mph - N/A   Clear
6:58 AM 72.9 °F - 72.9 °F 100% 30.12 in 10.0 mi NNE 4.6 mph - N/A   Clear
7:58 AM 75.2 °F - 75.2 °F 100% 30.13 in 10.0 mi NE 3.5 mph - N/A   Clear
8:57 AM 77.0 °F - 75.2 °F 94% 30.14 in 10.0 mi South 5.8 mph - N/A   Light Drizzle
8:58 AM 76.8 °F - 75.6 °F 96% 30.15 in 10.0 mi South 5.8 mph - N/A   Light Drizzle
9:09 AM 77.0 °F - 75.2 °F 94% 30.14 in 10.0 mi SSE 4.6 mph - N/A   Clear
9:55 AM 78.8 °F - 73.4 °F 83% 30.14 in 10.0 mi SSE 8.1 mph - N/A   Clear
10:55 AM 80.6 °F 85.4 °F 73.4 °F 79% 30.14 in 10.0 mi SE 9.2 mph - N/A   Partly Cloudy
11:55 AM 80.6 °F 86.2 °F 75.2 °F 84% 30.14 in 10.0 mi SE 8.1 mph - N/A   Partly Cloudy
12:55 PM 80.6 °F 86.2 °F 75.2 °F 84% 30.14 in 10.0 mi SE 8.1 mph - N/A   Partly Cloudy
1:58 PM 82.9 °F 89.7 °F 74.5 °F 75% 30.13 in 10.0 mi ESE 8.1 mph - N/A   Scattered Clouds
2:58 PM 84.2 °F 91.6 °F 74.1 °F 72% 30.11 in 10.0 mi SE 9.2 mph - N/A   Clear
3:58 PM 81.9 °F 88.0 °F 74.3 °F 78% 30.11 in 10.0 mi SE 12.7 mph - N/A   Clear
4:58 PM 81.1 °F 86.2 °F 73.2 °F 77% 30.10 in 10.0 mi ESE 8.1 mph - N/A   Clear
5:58 PM 81.5 °F 87.2 °F 74.1 °F 78% 30.09 in 10.0 mi SSE 12.7 mph - N/A   Clear
6:58 PM 80.4 °F 85.8 °F 75.0 °F 84% 30.09 in 10.0 mi SSE 5.8 mph - N/A   Clear
7:58 PM 79.5 °F - 75.4 °F 87% 30.09 in 10.0 mi SSE 4.6 mph - N/A   Clear
8:58 PM 77.5 °F - 74.3 °F 90% 30.10 in 10.0 mi WSW 1.2 mph - N/A   Clear
9:58 PM 75.4 °F - 73.8 °F 95% 30.10 in 10.0 mi Calm Calm - N/A   Clear
10:54 PM 75.2 °F - 75.2 °F 100% 30.11 in 6.0 mi SSW 10.4 mph - N/A Rain Rain
10:58 PM 75.7 °F - 74.5 °F 96% 30.11 in 1.8 mi SSE 4.6 mph - 0.03 in Rain Heavy Rain
11:08 PM 77.0 °F - 75.2 °F 94% 30.11 in 4.0 mi WSW 4.6 mph - N/A Rain Light Rain
11:09 PM 77.0 °F - 75.2 °F 94% 30.11 in 9.0 mi WSW 4.6 mph - N/A   Partly Cloudy
11:14 PM 75.2 °F - 75.2 °F 100% 30.11 in 10.0 mi WSW 4.6 mph - N/A   Partly Cloudy
11:58 PM 75.0 °F - 74.7 °F 99% 30.11 in 10.0 mi South 2.3 mph - 0.22 in   Clear